Weather History for Ann Arbor, MI

Change the Weather History Date:

Wednesday, May 29, 2013

  Actual Average Record
Temperature  
Mean Temperature 73 °F -  
Max Temperature 84 °F 67 °F 90 °F (2006)
Min Temperature 64 °F 45 °F 35 °F (2008)
Cooling Degree Days 8    
Growing Degree Days 23 (Base 50)    
Moisture  
Dew Point 64 °F    
Average Humidity 72    
Maximum Humidity 97    
Minimum Humidity 51    
Precipitation  
Precipitation 0.00 in - - ()
Sea Level Pressure  
Sea Level Pressure 29.93 in    
Wind  
Wind Speed 9 mph (WSW)    
Max Wind Speed 18 mph    
Max Gust Speed 29 mph    
Visibility 9 miles    
Events      
Averages and records for this station are not official NWS values.
T = Trace of Precipitation, MM = Missing Value Source: NWS Daily Summary

Daily Weather History Graph

Daily Weather History Graph

Search for Another Location

Airport:

Trip Planner

Search our weather history database for the weather conditions in past years. The results will help you decide how hot, cold, wet, or windy it might be!

Date:

Astronomy

May. 29, 2013 Rise Set
Actual Time 6:02 AM EDT 9:02 PM EDT
Civil Twilight 5:29 AM EDT 9:36 PM EDT
Nautical Twilight 4:46 AM EDT 10:19 PM EDT
Astronomical Twilight 3:56 AM EDT 11:09 PM EDT
Moon 12:22 AM EDT 11:03 AM EDT
Length of Visible Light 16h 07m
Length of Day
15h 00m
Waning Gibbous, 73% of the Moon is Illuminated
May 29
Waning Gibbous
May 31
Last Quarter
Jun 8
New
Jun 16
First Quarter
Jun 23
Full

Hourly Weather History & Observations

Time (EDT) Temp. Heat Index Dew Point Humidity Pressure Visibility Wind Dir Wind Speed Gust Speed Precip Events Conditions
12:53 AM 73.0 °F - 66.0 °F 79% 29.83 in 10.0 mi SSW 9.2 mph - N/A   Scattered Clouds
1:53 AM 73.9 °F - 64.9 °F 73% 29.83 in 10.0 mi SW 12.7 mph 19.6 mph N/A   Clear
2:53 AM 72.0 °F - 62.1 °F 71% 29.82 in 10.0 mi SW 17.3 mph 28.8 mph N/A   Clear
3:53 AM 70.0 °F - 60.1 °F 71% 29.84 in 10.0 mi WSW 11.5 mph - N/A   Clear
4:53 AM 68.0 °F - 61.0 °F 78% 29.88 in 10.0 mi WSW 8.1 mph - N/A   Mostly Cloudy
5:53 AM 66.9 °F - 62.1 °F 84% 29.89 in 10.0 mi SW 6.9 mph - N/A   Clear
6:53 AM 68.0 °F - 63.0 °F 84% 29.89 in 10.0 mi SW 6.9 mph - N/A   Clear
7:53 AM 69.1 °F - 64.0 °F 84% 29.90 in 10.0 mi WSW 3.5 mph - N/A   Partly Cloudy
8:53 AM 72.0 °F - 64.9 °F 78% 29.91 in 10.0 mi SW 8.1 mph - N/A   Clear
9:53 AM 75.0 °F - 64.9 °F 71% 29.92 in 10.0 mi WSW 11.5 mph - N/A   Clear
10:53 AM 75.9 °F - 62.1 °F 62% 29.92 in 10.0 mi West 16.1 mph 26.5 mph N/A   Clear
11:53 AM 77.0 °F - 62.1 °F 60% 29.94 in 10.0 mi West 18.4 mph 21.9 mph N/A   Clear
12:53 PM 80.1 °F 81.5 °F 63.0 °F 56% 29.97 in 10.0 mi WSW 18.4 mph 24.2 mph N/A   Clear
1:53 PM 81.0 °F 82.2 °F 63.0 °F 54% 29.97 in 10.0 mi West 15.0 mph 21.9 mph N/A   Partly Cloudy
2:53 PM 82.9 °F 84.0 °F 63.0 °F 51% 29.97 in 10.0 mi West 10.4 mph 17.3 mph N/A   Clear
3:53 PM 82.0 °F 83.0 °F 62.1 °F 51% 29.98 in 10.0 mi WSW 11.5 mph - N/A   Mostly Cloudy
4:53 PM 80.1 °F 81.7 °F 64.0 °F 58% 29.97 in 10.0 mi West 10.4 mph - N/A   Mostly Cloudy
5:53 PM 80.1 °F 81.9 °F 64.9 °F 60% 29.98 in 10.0 mi West 8.1 mph - N/A   Mostly Cloudy
6:53 PM 79.0 °F - 66.0 °F 64% 29.97 in 10.0 mi West 5.8 mph - N/A   Mostly Cloudy
7:53 PM 79.0 °F - 66.0 °F 64% 29.96 in 10.0 mi Calm Calm - N/A   Clear
8:53 PM 73.0 °F - 66.9 °F 81% 29.96 in 10.0 mi Calm Calm - N/A   Partly Cloudy
9:53 PM 70.0 °F - 66.0 °F 87% 29.97 in 10.0 mi Calm Calm - N/A   Clear
10:53 PM 68.0 °F - 64.9 °F 90% 30.00 in 10.0 mi Calm Calm - N/A   Clear
11:53 PM 64.9 °F - 64.0 °F 97% 29.99 in 4.0 mi Calm Calm - N/A   Clear
11:56 PM 64.4 °F - 62.6 °F 94% 30.00 in 1.2 mi Calm Calm - N/A   Clear